TimeCST,TemperatureF,Dew PointF,Humidity,Sea Level PressureIn,VisibilityMPH,Wind Direction,Wind SpeedMPH,Gust SpeedMPH,PrecipitationIn,Events,Conditions,WindDirDegrees,DateUTC
12:53 AM,64.0,63.0,96,30.15,8.0,East,10.4,-,0.02,Rain,Light Rain,100,2013-01-09 06:53:00
1:53 AM,64.0,63.0,96,30.15,6.0,East,8.1,-,0.04,Rain,Light Rain,100,2013-01-09 07:53:00
2:53 AM,64.0,63.0,96,30.14,7.0,East,5.8,-,0.05,Rain,Light Rain,90,2013-01-09 08:53:00
3:53 AM,64.0,64.0,100,30.11,7.0,East,8.1,-,0.06,Rain,Light Rain,100,2013-01-09 09:53:00
4:53 AM,64.0,64.0,100,30.10,9.0,East,6.9,-,0.02,Rain,Light Rain,100,2013-01-09 10:53:00
5:53 AM,64.9,64.0,97,30.12,9.0,East,6.9,-,0.00,,Mostly Cloudy,100,2013-01-09 11:53:00
6:53 AM,64.0,63.0,96,30.14,9.0,East,5.8,-,0.00,Rain,Light Rain,90,2013-01-09 12:53:00
7:53 AM,64.0,63.0,96,30.14,6.0,East,10.4,-,0.00,,Overcast,100,2013-01-09 13:53:00
8:53 AM,64.9,64.0,97,30.18,7.0,ESE,9.2,-,N/A,,Overcast,110,2013-01-09 14:53:00
9:21 AM,64.4,64.4,100,30.18,6.0,East,10.4,-,N/A,,Overcast,100,2013-01-09 15:21:00
9:53 AM,64.9,64.9,100,30.19,5.0,ESE,9.2,-,N/A,,Overcast,110,2013-01-09 15:53:00
10:53 AM,64.9,64.9,100,30.19,6.0,ESE,8.1,17.3,N/A,,Overcast,110,2013-01-09 16:53:00
12:53 PM,66.9,66.0,97,30.14,5.0,East,8.1,-,N/A,,Overcast,90,2013-01-09 18:53:00
1:53 PM,68.0,66.9,96,30.13,7.0,ESE,11.5,18.4,N/A,,Overcast,110,2013-01-09 19:53:00
2:42 PM,68.0,66.2,94,30.12,8.0,ESE,6.9,-,N/A,,Overcast,110,2013-01-09 20:42:00
2:53 PM,68.0,66.9,96,30.12,8.0,ESE,6.9,16.1,N/A,,Overcast,120,2013-01-09 20:53:00
3:53 PM,68.0,66.9,96,30.12,7.0,East,6.9,-,N/A,,Overcast,100,2013-01-09 21:53:00
4:53 PM,68.0,66.9,96,30.12,7.0,East,9.2,17.3,N/A,,Overcast,90,2013-01-09 22:53:00
5:03 PM,68.0,66.2,94,30.12,7.0,ESE,10.4,-,N/A,,Overcast,110,2013-01-09 23:03:00
5:53 PM,68.0,66.9,96,30.15,8.0,East,8.1,-,N/A,,Overcast,90,2013-01-09 23:53:00
6:53 PM,68.0,66.9,96,30.17,5.0,East,9.2,-,N/A,,Overcast,100,2013-01-10 00:53:00
7:53 PM,66.9,66.9,100,30.17,2.5,ESE,8.1,-,N/A,,Overcast,110,2013-01-10 01:53:00
8:05 PM,66.2,66.2,100,30.17,3.0,ESE,9.2,-,N/A,,Overcast,110,2013-01-10 02:05:00
8:53 PM,68.0,68.0,100,30.18,4.0,ESE,8.1,-,N/A,,Overcast,110,2013-01-10 02:53:00
9:53 PM,68.0,68.0,100,30.18,4.0,ESE,8.1,-,0.00,,Overcast,110,2013-01-10 03:53:00
10:53 PM,68.0,68.0,100,30.18,7.0,ESE,9.2,-,0.01,,Overcast,110,2013-01-10 04:53:00
11:53 PM,70.0,69.1,97,30.17,9.0,SE,11.5,-,0.00,,Overcast,130,2013-01-10 05:53:00